Location: Arcusa
(42.3167°N, 0.0833°W)
Time: 22:02:44
(UTC+00:00)

Abrixas rocket - Pass Details

Date: 25 January 2020
Orbit: 353 x 361 km, 48.4° (Epoch: 17 February)

Event Time Altitude Azimuth Distance (km) Brightness Sun altitude
Exits shadow 06:46:46 - 263° (W) 1,603 4.6 -6.7°
Reaches altitude 10° 06:48:05 10° 242° (WSW) 1,341 4.4 -6.4°
Maximum altitude 06:49:00 11° 224° (SW) 1,280 4.5 -6.3°
Drops below altitude 10° 06:49:55 10° 206° (SSW) 1,339 4.8 -6.1°
Sets 06:53:08 0° 168° (SSE) 2,181 6.4 -5.6°
